Weather History for Orr, MN

Change the Weather History Date:

Sunday, January 20, 2013

  Actual Average Record
Temperature  
Mean Temperature -11 °F -  
Max Temperature -2 °F 13 °F 24 °F (1997)
Min Temperature -20 °F -1 °F -27 °F (2000)
Degree Days  
Heating Degree Days 76    
Moisture  
Dew Point -18 °F    
Average Humidity 73    
Maximum Humidity 84    
Minimum Humidity 60    
Precipitation  
Precipitation 0.00 in - - ()
Sea Level Pressure  
Sea Level Pressure 30.13 in    
Wind  
Wind Speed 7 mph (WNW)    
Max Wind Speed 15 mph    
Max Gust Speed 22 mph    
Visibility 9 miles    
Events      
Averages and records for this station are not official NWS values.
T = Trace of Precipitation, MM = Missing Value Source: NWS Daily Summary

Daily Weather History Graph

Daily Weather History Graph

Search for Another Location

Airport:

Trip Planner

Search our weather history database for the weather conditions in past years. The results will help you decide how hot, cold, wet, or windy it might be!

Date:

Astronomy

Jan. 20, 2013 Rise Set
Actual Time 7:52 AM CST 4:53 PM CST
Civil Twilight 7:17 AM CST 5:27 PM CST
Nautical Twilight 6:39 AM CST 6:06 PM CST
Astronomical Twilight 6:02 AM CST 6:43 PM CST
Moon 11:56 AM CST 2:22 AM CST
Length of Visible Light 10h 10m
Length of Day
9h 01m
Waxing Gibbous, 66% of the Moon is Illuminated
Jan 20
Waxing Gibbous
Jan 26
Full
Feb 3
Last Quarter
Feb 10
New
Feb 17
First Quarter

Hourly Weather History & Observations

Time (CST) Temp. Windchill Dew Point Humidity Pressure Visibility Wind Dir Wind Speed Gust Speed Precip Events Conditions
12:13 AM -7.6 °F -26.6 °F -14.8 °F 71% 30.09 in 10.0 mi NW 11.5 mph 18.4 mph N/A   Clear
12:33 AM -7.6 °F -25.7 °F -14.8 °F 71% 30.09 in 10.0 mi NW 10.4 mph 17.3 mph N/A   Clear
12:53 AM -9.4 °F -24.3 °F -14.8 °F 77% 30.10 in 10.0 mi NW 6.9 mph - N/A   Clear
1:13 AM -9.4 °F -24.3 °F -14.8 °F 77% 30.11 in 10.0 mi NW 6.9 mph - N/A   Clear
1:33 AM -9.4 °F -22.7 °F -16.6 °F 71% 30.11 in 10.0 mi NW 5.8 mph - N/A   Clear
1:53 AM -11.2 °F -26.4 °F -16.6 °F 77% 30.12 in 10.0 mi NW 6.9 mph - N/A   Clear
2:13 AM -11.2 °F -26.4 °F -16.6 °F 77% 30.13 in 10.0 mi NW 6.9 mph - N/A   Clear
2:33 AM -13.0 °F -25.1 °F -18.4 °F 77% 30.13 in 10.0 mi NW 4.6 mph - N/A   Clear
2:53 AM -13.0 °F -27.0 °F -18.4 °F 77% 30.14 in 10.0 mi NW 5.8 mph - N/A   Clear
3:13 AM -13.0 °F -25.1 °F -18.4 °F 77% 30.13 in 10.0 mi NW 4.6 mph - N/A   Clear
3:33 AM -14.8 °F -29.1 °F -20.2 °F 77% 30.13 in 10.0 mi WNW 5.8 mph - N/A   Clear
3:53 AM -14.8 °F -27.2 °F -20.2 °F 77% 30.14 in 10.0 mi NW 4.6 mph - N/A   Clear
4:13 AM -14.8 °F -32.2 °F -18.4 °F 84% 30.14 in 10.0 mi WNW 8.1 mph - N/A   Clear
4:33 AM -14.8 °F -30.8 °F -18.4 °F 84% 30.15 in 10.0 mi WNW 6.9 mph - N/A   Clear
4:53 AM -14.8 °F -33.5 °F -20.2 °F 77% 30.15 in 5.0 mi WNW 9.2 mph - N/A   Haze
5:13 AM -14.8 °F -34.6 °F -20.2 °F 77% 30.16 in 10.0 mi WNW 10.4 mph - N/A   Clear
5:33 AM -14.8 °F -33.5 °F -20.2 °F 77% 30.17 in 7.0 mi WNW 9.2 mph - N/A   Clear
5:53 AM -14.8 °F -30.8 °F -20.2 °F 77% 30.17 in 10.0 mi WNW 6.9 mph - N/A   Clear
6:13 AM -14.8 °F -30.8 °F -20.2 °F 77% 30.17 in 10.0 mi WNW 6.9 mph - N/A   Clear
6:33 AM -16.6 °F -32.9 °F -20.2 °F 84% 30.17 in 10.0 mi WNW 6.9 mph - N/A   Clear
6:53 AM -16.6 °F -29.3 °F -22.0 °F 76% 30.17 in 10.0 mi WNW 4.6 mph - N/A   Clear
7:13 AM -16.6 °F -26.8 °F -23.8 °F 70% 30.18 in 10.0 mi West 3.5 mph - N/A   Clear
7:33 AM -16.6 °F -26.8 °F -22.0 °F 76% 30.18 in 10.0 mi West 3.5 mph - N/A   Clear
7:53 AM -18.4 °F - -23.8 °F 76% 30.18 in 10.0 mi Calm Calm - N/A   Clear
8:13 AM -20.2 °F - -25.6 °F 76% 30.18 in 10.0 mi Calm Calm - N/A   Clear
8:33 AM -20.2 °F - -25.6 °F 76% 30.19 in 10.0 mi Calm Calm - N/A   Clear
8:53 AM -16.6 °F - -22.0 °F 76% 30.20 in 10.0 mi Calm Calm - N/A   Clear
9:13 AM -16.6 °F -26.8 °F -22.0 °F 76% 30.19 in 10.0 mi WNW 3.5 mph - N/A   Clear
9:33 AM -14.8 °F -27.2 °F -20.2 °F 77% 30.19 in 10.0 mi WNW 4.6 mph - N/A   Clear
9:53 AM -14.8 °F -27.2 °F -18.4 °F 84% 30.19 in 10.0 mi WNW 4.6 mph - N/A   Clear
10:13 AM -14.8 °F -24.8 °F -18.4 °F 84% 30.19 in 10.0 mi NW 3.5 mph - N/A   Scattered Clouds
10:34 AM -11.2 °F -20.6 °F -18.4 °F 70% 30.19 in 10.0 mi NW 3.5 mph - N/A   Scattered Clouds
10:53 AM -11.2 °F -20.6 °F -16.6 °F 77% 30.20 in 5.0 mi West 3.5 mph - N/A   Haze
11:13 AM -9.4 °F -20.9 °F -16.6 °F 71% 30.20 in 5.0 mi West 4.6 mph - N/A   Haze
11:33 AM -9.4 °F -22.7 °F -14.8 °F 77% 30.19 in 5.0 mi WNW 5.8 mph - N/A   Haze
12:13 PM -5.8 °F -19.9 °F -14.8 °F 65% 30.18 in 7.0 mi West 6.9 mph - N/A   Scattered Clouds
12:34 PM -5.8 °F -22.4 °F -14.8 °F 65% 30.17 in 10.0 mi NW 9.2 mph - N/A   Clear
12:53 PM -5.8 °F -22.4 °F -14.8 °F 65% 30.17 in 10.0 mi WNW 9.2 mph - N/A   Clear
1:13 PM -5.8 °F -22.4 °F -14.8 °F 65% 30.16 in 10.0 mi NW 9.2 mph - N/A   Clear
1:34 PM -5.8 °F -21.2 °F -14.8 °F 65% 30.15 in 10.0 mi WNW 8.1 mph - N/A   Clear
1:54 PM -4.0 °F -17.8 °F -13.0 °F 65% 30.13 in 7.0 mi NW 6.9 mph - N/A   Clear
2:15 PM -4.0 °F -17.8 °F -13.0 °F 65% 30.14 in 10.0 mi WNW 6.9 mph - N/A   Clear
2:33 PM -2.2 °F -18.0 °F -13.0 °F 60% 30.14 in 4.0 mi WSW 9.2 mph - N/A   Haze
2:53 PM -2.2 °F -16.8 °F -11.2 °F 66% 30.14 in 5.0 mi West 8.1 mph - N/A   Haze
3:15 PM -2.2 °F -15.6 °F -11.2 °F 66% 30.14 in 7.0 mi West 6.9 mph - N/A   Scattered Clouds
3:34 PM -4.0 °F -20.2 °F -13.0 °F 65% 30.13 in 7.0 mi West 9.2 mph - N/A   Clear
3:53 PM -4.0 °F -20.2 °F -13.0 °F 65% 30.13 in 7.0 mi West 9.2 mph - N/A   Clear
4:13 PM -5.8 °F -16.7 °F -11.2 °F 77% 30.12 in 10.0 mi West 4.6 mph - N/A   Clear
4:33 PM -5.8 °F -16.7 °F -14.8 °F 65% 30.11 in 10.0 mi West 4.6 mph - N/A   Clear
4:53 PM -5.8 °F -16.7 °F -14.8 °F 65% 30.11 in 10.0 mi West 4.6 mph - N/A   Clear
5:13 PM -7.6 °F -18.8 °F -14.8 °F 71% 30.11 in 10.0 mi West 4.6 mph - N/A   Clear
5:33 PM -7.6 °F -18.8 °F -14.8 °F 71% 30.10 in 10.0 mi West 4.6 mph - N/A   Clear
5:53 PM -9.4 °F -20.9 °F -14.8 °F 77% 30.10 in 10.0 mi West 4.6 mph - N/A   Clear
6:13 PM -9.4 °F -18.6 °F -14.8 °F 77% 30.10 in 10.0 mi West 3.5 mph - N/A   Clear
6:33 PM -9.4 °F -22.7 °F -14.8 °F 77% 30.10 in 10.0 mi West 5.8 mph - N/A   Clear
6:53 PM -9.4 °F -20.9 °F -14.8 °F 77% 30.09 in 10.0 mi West 4.6 mph - N/A   Clear
7:13 PM -9.4 °F -24.3 °F -16.6 °F 71% 30.09 in 10.0 mi West 6.9 mph - N/A   Clear
7:33 PM -9.4 °F -22.7 °F -16.6 °F 71% 30.09 in 10.0 mi West 5.8 mph - N/A   Clear
7:54 PM -9.4 °F -25.6 °F -16.6 °F 71% 30.09 in 10.0 mi West 8.1 mph - N/A   Clear
8:14 PM -9.4 °F -26.8 °F -16.6 °F 71% 30.08 in 10.0 mi West 9.2 mph - N/A   Clear
8:33 PM -9.4 °F -25.6 °F -16.6 °F 71% 30.08 in 10.0 mi WNW 8.1 mph 17.3 mph N/A   Clear
8:53 PM -11.2 °F -32.1 °F -16.6 °F 77% 30.08 in 10.0 mi WNW 12.7 mph 19.6 mph N/A   Clear
9:13 PM -11.2 °F -30.1 °F -18.4 °F 70% 30.08 in 10.0 mi WNW 10.4 mph - N/A   Clear
9:33 PM -11.2 °F -30.1 °F -18.4 °F 70% 30.08 in 10.0 mi WNW 10.4 mph 17.3 mph N/A   Clear
9:53 PM -13.0 °F -32.4 °F -18.4 °F 77% 30.09 in 10.0 mi WNW 10.4 mph 18.4 mph N/A   Clear
10:13 PM -13.0 °F -31.3 °F -20.2 °F 70% 30.09 in 10.0 mi WNW 9.2 mph - N/A   Clear
10:34 PM -14.8 °F -37.5 °F -20.2 °F 77% 30.09 in 10.0 mi WNW 13.8 mph 19.6 mph N/A   Scattered Clouds
10:53 PM -14.8 °F -36.6 °F -22.0 °F 70% 30.09 in 7.0 mi WNW 12.7 mph 20.7 mph N/A   Clear
11:13 PM -14.8 °F -37.5 °F -23.8 °F 64% 30.09 in 10.0 mi WNW 13.8 mph 19.6 mph N/A   Clear
11:33 PM -14.8 °F -38.3 °F -23.8 °F 64% 30.09 in 10.0 mi WNW 15.0 mph 21.9 mph N/A   Clear
11:53 PM -16.6 °F -37.9 °F -23.8 °F 70% 30.09 in 10.0 mi WNW 11.5 mph 19.6 mph N/A   Clear